Location: Rochester
(43.1610°N, 77.6109°W)
Time: 18:51:16
(UTC-04:00)

Envisat - Pass Details

Date: 05 August 2021
Orbit: 764 x 766 km, 98.2° (Epoch: 17 September)

Event Time Altitude Azimuth Distance (km) Brightness Sun altitude
Rises 04:56:55 0° 36° (NE) 3,240 7.8 -11.6°
Reaches altitude 10° 05:01:13 10° 71° (ENE) 2,306 6.8 -11.0°
Maximum altitude 05:02:40 11° 87° (E) 2,225 6.3 -10.7°
Drops below altitude 10° 05:04:06 10° 104° (ESE) 2,300 6.1 -10.5°
Sets 05:08:21 0° 139° (SE) 3,218 6.3 -9.9°
